SCP
3 4 4 4 4 4 4 3 3 2 2 2 2 2 3 3 2 2 2 1 1 0 0 0 0 1 1 1 1 1 1 1 1 1 1 1 1 1
4 4 4 4 4 4 4 4 3 3 2 2 2 3 3 3 3 3 2 2 1 0 0 0 0 0 1 1 1 1 1 1 1 1 1 1 1 1
4 4 4 4 4 4 3 4 4 3 3 3 3 3 4 4 4 4 3 2 2 1 1 0 0 0 0 1 1 1 0 0 0 1 1 1 1 0
3 3 4 4 4 4 4 3 3 3 4 4 4 3 4 4 5 5 4 4 3 2 1 1 0 0 0 0 0 0 0 0 0 0 0 0 0 0
3 3 3 3 4 4 4 4 3 3 3 4 4 4 3 4 4 5 5 5 4 3 2 1 1 0 0 0 0 0 0 0 0 0 0 0 0 0
3 3 3 3 4 4 4 4 3 3 3 3 4 4 3 3 4 4 5 5 5 5 4 2 1 1 0 0 0 0 0 0 0 0 0 0 0 0
4 4 4 3 3 3 3 3 3 3 3 3 3 4 3 3 4 4 4 5 5 6 6 4 2 2 1 1 0 0 0 0 0 0 0 0 0 0
4 4 4 3 2 2 2 2 2 3 3 3 3 4 4 4 4 4 4 4 5 6 7 6 4 3 2 1 1 0 0 0 0 0 0 0 0 0
4 4 3 3 2 2 2 2 2 2 2 3 3 4 4 5 5 5 5 5 5 6 7 7 6 5 4 3 1 0 0 0 0 0 0 0 0 0
3 3 3 3 2 2 2 2 2 2 2 3 3 4 4 5 5 5 6 6 6 7 7 7 6 6 6 5 2 0 0 0 0 0 0 0 0 0
3 3 3 3 2 2 3 3 3 3 3 3 4 4 4 4 4 4 5 5 6 7 8 9 8 7 7 5 2 1 0 0 0 0 0 0 0 0
3 3 3 3 2 2 2 3 4 4 4 4 5 5 5 4 4 5 5 5 5 6 8 9 9 8 6 4 1 1 0 0 0 0 0 0 0 0
3 4 3 2 1 1 2 2 3 3 3 4 6 7 7 7 7 7 7 7 6 6 6 7 7 6 5 2 1 0 0 0 0 0 0 0 0 0
4 4 2 1 1 1 1 1 1 2 2 4 7 9 9 8 8 8 8 8 6 5 5 4 4 4 3 2 1 0 0 0 1 1 1 1 0 0
4 3 1 1 0 0 1 1 1 2 2 4 6 8 8 8 8 8 8 7 6 4 3 3 2 2 2 2 1 0 0 0 1 1 1 1 1 1
3 2 1 1 1 1 1 1 2 2 3 3 4 4 5 6 6 7 7 7 5 4 3 2 2 2 1 1 1 0 0 0 1 1 1 2 2 1
3 3 2 2 1 1 1 2 2 2 3 2 2 3 3 4 5 6 7 7 5 4 3 2 1 1 1 1 1 1 0 0 0 1 1 1 1 1
2 3 3 3 3 2 2 2 2 2 2 2 2 3 3 3 4 5 6 6 5 4 3 2 2 1 1 1 1 1 0 0 0 0 1 1 1 0
2 2 3 3 3 3 2 2 2 2 2 2 2 3 3 3 4 4 5 5 5 4 4 3 2 1 1 1 1 0 0 0 0 0 0 0 0 0
1 2 2 3 2 2 2 2 2 2 2 2 3 3 2 2 3 3 4 5 5 4 4 4 3 2 1 1 1 0 0 0 0 0 0 0 0 0
1 2 3 3 3 2 2 2 3 3 3 3 3 3 2 2 1 2 3 4 4 4 4 4 3 2 1 1 1 1 1 0 0 0 0 0 0 0
2 3 3 3 3 3 3 3 3 4 4 4 3 2 2 1 1 1 2 3 3 4 4 4 3 3 2 1 1 1 1 1 1 0 0 0 0 0
3 3 4 4 3 3 3 3 3 4 4 4 3 2 2 1 1 1 1 2 3 4 4 4 3 3 2 1 1 1 1 1 1 0 0 0 0 0
Wind_Speed
2 2 2 2 2 2 1 2 2 2 2 1 1 1 2 2 6 3 3 5 5 5 5 5 4 4 3 3 3 3 4 4 4 4 4 3 4 5
2 2 2 2 2 2 2 1 1 2 2 1 1 1 2 2 5 3 2 6 6 6 6 6 6 5 4 4 4 4 4 4 4 4 4 3 3 3
2 2 3 2 2 2 1 1 1 1 2 2 1 0 1 1 2 2 3 3 3 7 7 7 7 7 6 5 5 4 4 4 4 4 3 3 3 3
2 2 3 2 2 2 1 1 1 2 2 2 1 1 1 1 1 2 2 2 2 6 8 8 9 8 7 7 6 5 5 4 4 4 3 4 4 3
3 3 3 2 2 2 2 2 2 2 1 2 2 1 1 1 1 1 2 1 2 3 6 8 8 8 8 7 6 6 5 5 4 4 4 3 3 3
3 3 3 3 3 3 3 3 2 2 2 2 2 1 1 1 1 1 1 1 1 0 1 3 5 7 7 7 7 7 7 6 5 5 4 4 3 3
3 4 3 3 3 3 3 2 3 3 2 2 2 1 1 1 1 1 1 1 1 1 1 1 2 3 4 5 6 7 7 7 7 6 5 5 4 4
3 3 3 2 2 3 4 4 4 4 3 2 2 3 2 2 2 2 1 1 2 1 1 2 1 2 3 3 5 8 8 8 8 7 6 6 6 5
3 3 4 3 2 2 2 3 4 5 6 4 4 4 3 2 2 2 2 3 3 2 2 2 2 2 3 4 8 9 9 9 9 8 8 7 7 6
2 2 2 2 2 2 3 2 3 2 4 4 3 4 3 2 2 3 3 2 2 1 2 2 2 2 3 3 8 10 9 9 9 9 9 9 8 8
2 1 1 1 2 2 2 2 2 2 1 2 3 4 3 3 3 2 2 2 2 2 1 2 2 2 2 3 5 9 10 10 10 10 10 9 9 7
1 0 0 1 1 1 1 1 2 2 2 2 1 2 3 3 4 4 3 3 2 2 1 1 1 1 1 1 2 3 5 7 9 9 10 9 8 5
1 1 0 0 1 2 3 2 3 2 2 2 1 1 1 1 2 2 3 3 3 3 2 1 1 2 2 1 1 2 3 3 4 5 8 9 9 7
2 1 1 1 2 3 3 3 3 2 1 1 1 0 0 1 1 1 2 2 2 3 3 2 2 2 2 2 2 2 2 2 3 3 3 6 6 7
2 2 2 3 3 3 3 3 2 1 1 1 1 1 1 1 1 1 1 1 1 1 1 1 2 2 2 2 2 1 1 2 2 2 2 3 4 4
2 2 2 4 3 2 2 1 1 1 1 1 1 1 1 1 1 1 1 0 1 1 1 1 1 2 2 2 1 1 1 1 1 1 1 2 2 3
2 1 1 1 1 1 1 0 0 0 1 1 1 1 1 1 1 1 1 1 1 1 1 1 1 1 1 1 1 1 1 1 1 1 2 2 2 2
0 1 2 1 1 1 1 1 1 1 1 1 1 1 1 1 1 1 1 1 1 1 1 1 1 1 2 2 1 1 1 1 1 1 2 2 2 2
1 2 2 1 1 1 1 1 1 1 1 1 1 1 1 1 1 1 1 1 1 1 1 1 1 1 2 2 2 2 1 1 2 2 2 2 2 2
2 2 2 1 1 0 1 1 1 1 1 1 1 1 1 1 1 1 1 1 2 1 1 1 1 1 2 2 2 3 4 3 2 2 2 1 1 1
1 1 1 1 1 1 1 1 1 1 1 1 1 1 1 1 1 1 1 1 1 1 2 1 2 2 2 2 2 2 1 2 2 1 2 1 1 1
1 1 1 1 1 1 1 1 1 1 1 1 1 1 1 1 1 1 1 1 1 1 1 1 2 1 1 2 2 2 1 1 1 3 4 3 2 2
1 1 1 1 1 1 1 1 1 1 0 0 0 1 1 1 1 1 1 1 1 1 1 1 1 1 2 2 2 2 2 1 1 1 2 3 3 4
Wind_Direction
261 263 265 268 272 265 237 214 221 259 270 249 278 163 147 140 152 165 155 170 179 187 190 188 187 187 190 195 200 201 200 198 200 204 202 212 230 233
264 263 266 266 272 269 257 240 207 218 252 269 240 177 145 141 149 166 167 167 184 189 194 191 187 182 181 185 188 189 191 194 197 200 201 199 202 209
281 273 261 263 274 284 277 265 243 219 227 268 265 62 111 128 161 184 185 175 181 190 193 194 192 189 185 185 186 185 184 186 186 187 193 194 188 190
265 268 265 257 259 263 269 250 238 231 203 240 264 231 226 165 195 200 204 195 180 185 193 195 195 193 192 188 187 187 185 182 184 187 190 194 190 189
261 255 262 260 258 258 250 245 248 248 218 224 247 235 220 209 197 213 210 207 223 190 190 196 197 196 193 190 189 189 188 188 189 191 191 191 188 188
271 263 261 256 252 250 239 231 240 243 230 224 229 214 200 211 184 216 221 218 230 208 197 186 189 194 189 188 189 191 192 190 190 192 190 188 187 190
277 275 262 258 251 246 247 227 233 235 233 226 233 230 220 204 226 232 231 252 244 185 190 214 176 187 190 196 196 195 191 190 190 193 195 194 196 198
277 281 266 258 245 245 242 233 229 227 229 229 232 239 238 225 229 236 221 234 260 220 200 246 202 198 186 191 192 189 192 194 196 197 200 201 201 204
269 274 277 280 278 277 252 228 230 225 224 226 230 239 242 229 217 233 237 235 244 226 195 239 220 220 206 200 191 193 197 199 200 202 202 202 204 208
271 269 277 307 301 313 275 255 248 251 242 227 228 240 240 216 202 219 227 251 260 231 187 232 231 232 236 204 197 200 203 204 206 206 207 206 207 212
261 277 265 261 331 327 286 266 267 272 287 249 234 231 233 229 216 220 233 237 267 263 227 219 235 239 237 224 205 204 207 207 208 209 210 212 213 210
249 214 265 288 313 318 298 271 262 266 280 283 250 228 226 222 214 216 226 231 249 256 233 213 223 242 265 243 219 198 207 214 212 214 215 216 211 203
279 270 280 292 331 321 310 286 254 258 262 254 235 211 228 241 225 225 226 223 232 255 250 215 251 238 221 241 245 212 196 196 196 213 216 214 203 195
293 297 256 240 281 297 292 284 281 274 265 281 275 271 259 277 279 268 252 238 221 230 243 223 234 239 237 240 246 223 205 200 195 199 194 193 206 207
293 307 291 260 255 259 252 259 261 258 257 261 264 281 279 271 265 274 320 307 288 277 282 242 235 242 228 236 232 220 216 218 207 192 186 181 187 194
300 305 277 262 259 269 256 241 213 222 245 263 274 288 308 304 290 281 282 318 332 332 343 338 300 286 273 260 230 232 225 210 206 182 183 204 192 189
308 289 274 259 221 239 239 229 244 262 271 283 278 272 275 276 271 270 258 277 275 278 304 345 348 330 297 263 235 227 227 233 204 191 202 222 219 196
140 250 254 244 240 255 292 289 257 255 271 261 254 255 261 262 261 281 276 267 265 260 260 271 324 322 319 328 304 253 245 245 247 225 219 215 227 211
206 246 253 250 246 246 266 285 293 285 259 254 257 261 267 270 262 268 271 279 279 279 279 270 267 279 296 296 301 294 275 249 236 231 227 226 229 221
240 254 266 269 269 269 294 305 313 303 279 279 277 272 277 269 269 268 268 278 285 282 281 281 280 296 284 275 277 280 264 247 233 234 240 236 238 248
282 267 290 322 347 11 2 347 322 297 286 269 277 279 288 288 273 264 256 258 266 278 277 272 266 270 273 281 280 278 270 261 264 253 237 225 239 242
307 344 28 35 33 38 30 354 317 308 310 296 317 325 316 306 296 282 266 262 258 283 308 293 266 263 270 276 277 276 275 278 289 299 294 263 225 232
340 5 26 49 56 38 15 337 315 306 333 352 7 334 325 306 295 294 279 271 301 307 309 295 297 286 266 261 266 275 278 264 251 269 286 279 253 243